Location: Beekmeers
(50.8953°N, 3.6968°E)
Time: 09:48:21
(UTC+00:00)

ADEOS II - Pass Details

Date: 23 May 2024
Orbit: 795 x 798 km, 98.7° (Epoch: 14 June)

Event Time Altitude Azimuth Distance (km) Brightness Sun altitude
Rises 02:51:47 0° 11° (NNE) 3,314 6.4 -7.2°
Reaches altitude 10° 02:54:10 10° 7° (N) 2,380 5.4 -6.9°
Maximum altitude 02:59:15 52° 292° (WNW) 988 2.5 -6.4°
Drops below altitude 10° 03:04:18 10° 218° (SW) 2,363 3.9 -5.8°
Enters shadow 03:05:07 - 216° (SW) 2,681 4.2 -5.7°
